Location: Chemnitz
(49.5500°N, 11.5830°E)
Time: 09:55:48
(UTC+01:00)

ISS - Pass Details

Date: 11 January 2018
Orbit: 401 x 406 km, 51.6° (Epoch: 17 January)

Event Time Altitude Azimuth Distance (km) Brightness Sun altitude
Exits shadow 07:15:07 10° 274° (W) 1,479 -1.6 -8.2°
Reaches altitude 10° 07:15:09 10° 273° (W) 1,465 -1.6 -8.2°
Maximum altitude 07:17:55 25° 216° (SW) 861 -2.3 -7.8°
Drops below altitude 10° 07:20:40 10° 159° (SSE) 1,460 -0.3 -7.4°
Sets 07:22:57 0° 145° (SE) 2,317 1.2 -7.1°
